Orbital Elements at Epoch 2459000.5 (2020-May-31.0) TDB
Reference: JPL 16 (heliocentric ecliptic J2000)
Element | Value | Uncertainty (1-sigma) | Units |
e | .05107296930517706 | 7.091e-08 | |
a | 2.397260865127349 | 2.8464e-08 | au |
q | 2.274825634546198 | 1.8509e-07 | au |
i | 7.551437583975698 | 7.2361e-06 | deg |
node | 26.0591585063577 | 5.4573e-05 | deg |
peri | 197.0809442210289 | 9.9829e-05 | deg |
M | 328.6062115910162 | 8.5194e-05 | deg |
tp | 2459118.725891194307 (2020-Sep-26.22589119) | 0.00032099 | TDB |
period | 1355.724268619038 3.71 | 2.4146e-05 6.611e-08 | d yr |
n | .2655407211723825 | 4.7294e-09 | deg/d |
Q | 2.5196960957085 | 2.9918e-08 | au |
|
| | Orbit Determination Parameters
Additional Information
|